OK2ZI Weather Reports


time (UTC)temp
F
wind
direction
speed
knots
gust
knots
rain 1hr
in
rain 24hr
in
rain mn
in
humidity
%
barometer
mb
20260503005206 40 246 0.0 0.0 0.00 0.00 0.00 72 1016.0
20260503005015 40 246 0.0 0.0 0.00 0.00 0.00 74 1016.0
20260503004606 39 246 0.0 0.0 0.00 0.00 0.00 75 1016.0
20260503004406 41 246 0.0 0.0 0.00 0.00 0.00 72 1016.0
20260503004207 41 246 0.0 0.0 0.00 0.00 0.00 71 1016.0
20260503004011 41 246 0.0 0.0 0.00 0.00 0.00 72 1016.0
20260503003805 41 246 0.0 0.0 0.00 0.00 0.00 71 1016.0
20260503003606 41 246 0.0 0.0 0.00 0.00 0.00 71 1016.0
20260503003406 40 246 0.0 0.0 0.00 0.00 0.00 71 1016.0
20260503003014 40 246 0.0 0.0 0.00 0.00 0.00 73 1016.0
20260503002807 40 246 0.0 0.0 0.00 0.00 0.00 73 1016.0
20260503002406 40 246 0.0 0.0 0.00 0.00 0.00 74 1016.0
20260503002206 40 246 0.0 0.0 0.00 0.00 0.00 73 1016.0
20260503001807 39 246 0.0 0.0 0.00 0.00 0.00 75 1016.0
20260503001406 39 246 0.0 0.0 0.00 0.00 0.00 78 1016.0
20260503001010 39 246 5.2 5.2 0.00 0.00 0.00 78 1016.0
20260503000808 40 246 0.0 0.0 0.00 0.00 0.00 77 1016.0
20260503000607 41 246 0.0 0.0 0.00 0.00 0.00 73 1016.0
20260503000206 40 246 0.0 0.0 0.00 0.00 0.00 74 1016.0
20260503000018 40 246 0.0 0.0 0.00 0.00 0.00 73 1016.0
20260502235805 39 246 0.0 0.0 0.00 0.00 0.00 75 1016.0
20260502235606 39 246 0.0 0.0 0.00 0.00 0.00 76 1016.0
20260502235406 38 246 0.0 0.0 0.00 0.00 0.00 79 1016.0
20260502235011 39 246 4.3 4.3 0.00 0.00 0.00 80 1016.0
20260502234807 41 246 0.0 0.0 0.00 0.00 0.00 74 1016.0
20260502234606 41 246 0.0 0.0 0.00 0.00 0.00 75 1016.0
20260502234407 41 246 0.0 0.0 0.00 0.00 0.00 74 1016.0
20260502234206 40 246 0.0 0.0 0.00 0.00 0.00 74 1016.0
20260502234011 40 246 0.0 0.0 0.00 0.00 0.00 75 1016.0
20260502233606 40 246 0.0 0.0 0.00 0.00 0.00 74 1016.0
20260502233206 39 246 0.0 0.0 0.00 0.00 0.00 78 1016.0
20260502233014 40 246 0.0 0.0 0.00 0.00 0.00 77 1016.0
20260502232806 41 246 0.0 0.0 0.00 0.00 0.00 74 1016.0
20260502232407 41 246 5.2 5.2 0.00 0.00 0.00 72 1016.0
20260502232206 40 246 0.0 0.0 0.00 0.00 0.00 73 1016.0
20260502232012 40 246 0.0 0.0 0.00 0.00 0.00 75 1016.0
20260502231807 40 241 0.0 0.0 0.00 0.00 0.00 78 1016.0
20260502231606 40 241 0.0 0.0 0.00 0.00 0.00 78 1016.0
20260502231406 40 241 0.0 0.0 0.00 0.00 0.00 78 1017.0
20260502231206 39 241 5.2 5.2 0.00 0.00 0.00 78 1017.0
20260502230807 39 241 0.0 0.0 0.00 0.00 0.00 79 1016.0
20260502230606 39 241 4.3 4.3 0.00 0.00 0.00 79 1016.0
20260502230406 41 241 4.3 4.3 0.00 0.00 0.00 75 1016.0
20260502230206 43 241 0.0 0.0 0.00 0.00 0.00 70 1016.0
20260502230022 42 241 7.0 7.0 0.00 0.00 0.00 67 1017.0
20260502225606 42 241 0.0 0.0 0.00 0.00 0.00 71 1017.0
20260502225406 41 241 5.2 5.2 0.00 0.00 0.00 71 1017.0
20260502225206 41 241 5.2 5.2 0.00 0.00 0.00 74 1017.0
20260502225010 41 241 0.0 0.0 0.00 0.00 0.00 75 1017.0
20260502224806 42 241 4.3 4.3 0.00 0.00 0.00 73 1017.0
20260502224606 41 241 0.0 0.0 0.00 0.00 0.00 72 1017.0
20260502224406 41 241 0.0 0.0 0.00 0.00 0.00 73 1016.0
20260502224207 41 241 7.0 7.0 0.00 0.00 0.00 73 1016.0
20260502224011 41 241 4.3 4.3 0.00 0.00 0.00 75 1017.0
20260502223805 41 241 7.0 7.0 0.00 0.00 0.00 75 1017.0
20260502223407 42 241 4.3 4.3 0.00 0.00 0.00 71 1017.0
20260502223206 43 242 4.3 4.3 0.00 0.00 0.00 69 1017.0
20260502223014 44 242 6.1 6.1 0.00 0.00 0.00 66 1017.0
20260502222806 46 242 0.0 0.0 0.00 0.00 0.00 63 1017.0
20260502222606 46 242 0.0 0.0 0.00 0.00 0.00 62 1017.0
20260502222407 45 242 0.0 0.0 0.00 0.00 0.00 61 1017.0
20260502222009 44 242 0.0 0.0 0.00 0.00 0.00 61 1017.0
20260502221806 44 241 0.0 0.0 0.00 0.00 0.00 64 1017.0
20260502221407 44 241 0.0 0.0 0.00 0.00 0.00 66 1017.0
20260502221207 45 241 0.0 0.0 0.00 0.00 0.00 66 1017.0
20260502220606 46 242 0.0 0.0 0.00 0.00 0.00 64 1017.0
20260502220407 46 242 0.0 0.0 0.00 0.00 0.00 63 1017.0
20260502220022 47 242 0.0 0.0 0.00 0.00 0.00 61 1017.0
20260502215807 46 242 0.0 0.0 0.00 0.00 0.00 61 1017.0
20260502215606 46 241 0.0 0.0 0.00 0.00 0.00 61 1017.0
20260502215406 45 241 0.0 0.0 0.00 0.00 0.00 63 1017.0
20260502215206 45 241 5.2 5.2 0.00 0.00 0.00 65 1017.0
20260502215010 45 241 0.0 0.0 0.00 0.00 0.00 66 1017.0
20260502214806 45 241 0.0 0.0 0.00 0.00 0.00 66 1017.0
20260502214606 44 241 0.0 0.0 0.00 0.00 0.00 67 1017.0
20260502214206 44 241 0.0 0.0 0.00 0.00 0.00 69 1017.0
20260502214010 43 241 4.3 4.3 0.00 0.00 0.00 68 1017.0
20260502213806 43 241 6.1 6.1 0.00 0.00 0.00 68 1017.0
20260502213606 43 241 7.0 7.0 0.00 0.00 0.00 74 1017.0
20260502213408 43 241 5.2 5.2 0.00 0.00 0.00 72 1017.0
20260502213207 43 241 4.3 4.3 0.00 0.00 0.00 72 1017.0
20260502213012 43 241 4.3 4.3 0.00 0.00 0.00 72 1017.0
20260502212806 43 241 4.3 4.3 0.00 0.00 0.00 72 1017.0
20260502212606 44 241 4.3 4.3 0.00 0.00 0.00 72 1017.0
20260502212406 45 241 4.3 4.3 0.00 0.00 0.00 69 1017.0
20260502212206 45 241 0.0 0.0 0.00 0.00 0.00 68 1017.0
20260502211805 46 242 5.2 5.2 0.00 0.00 0.00 65 1017.0
20260502211607 46 240 7.0 7.0 0.00 0.00 0.00 65 1017.0
20260502211405 45 240 4.3 4.3 0.00 0.00 0.00 64 1017.0
20260502211207 44 240 4.3 4.3 0.00 0.00 0.00 64 1017.0
20260502211008 44 240 0.0 0.0 0.00 0.00 0.00 67 1017.0
20260502210807 43 240 0.0 0.0 0.00 0.00 0.00 72 1017.0
20260502210606 44 240 0.0 0.0 0.00 0.00 0.00 74 1017.0
20260502210407 44 240 0.0 0.0 0.00 0.00 0.00 73 1017.0
20260502210205 44 240 0.0 0.0 0.00 0.00 0.00 73 1017.0
20260502210017 45 240 0.0 0.0 0.00 0.00 0.00 69 1017.0
20260502205804 48 240 6.1 6.1 0.00 0.00 0.00 62 1017.0
20260502205405 46 240 5.2 5.2 0.00 0.00 0.00 58 1017.0
20260502205206 45 240 0.0 0.0 0.00 0.00 0.00 61 1017.0
20260502205010 44 240 4.3 4.3 0.00 0.00 0.00 65 1017.0
20260502204606 44 240 0.0 0.0 0.00 0.00 0.00 73 1017.0
20260502204407 44 240 5.2 5.2 0.00 0.00 0.00 74 1017.0
20260502204207 44 240 7.0 7.0 0.00 0.00 0.00 72 1017.0
20260502204008 45 240 5.2 5.2 0.00 0.00 0.00 71 1017.0
20260502203807 46 240 0.0 0.0 0.00 0.00 0.00 68 1017.0
20260502203607 47 240 4.3 4.3 0.00 0.00 0.00 65 1017.0
20260502203016 49 240 0.0 0.0 0.00 0.00 0.00 59 1017.0
20260502202807 49 240 0.0 0.0 0.00 0.00 0.00 59 1017.0
20260502202607 49 240 0.0 0.0 0.00 0.00 0.00 59 1017.0
20260502202207 47 240 0.0 0.0 0.00 0.00 0.00 60 1017.0
20260502202011 47 240 0.0 0.0 0.00 0.00 0.00 61 1017.0
20260502201607 46 240 5.2 5.2 0.00 0.00 0.00 68 1017.0
20260502201406 46 240 4.3 4.3 0.00 0.00 0.00 69 1017.0
20260502201011 46 222 7.0 7.0 0.00 0.00 0.00 70 1017.0
20260502200806 47 222 7.0 7.0 0.00 0.00 0.00 68 1017.0
20260502200606 47 222 6.1 6.1 0.00 0.00 0.00 66 1017.0
20260502200406 49 222 5.2 5.2 0.00 0.00 0.00 62 1017.0
20260502200205 50 222 6.1 6.1 0.00 0.00 0.00 59 1017.0
20260502200021 50 222 0.0 0.0 0.00 0.00 0.00 59 1017.0
20260502195606 49 222 0.0 0.0 0.00 0.00 0.00 60 1017.0
20260502195405 48 222 4.3 4.3 0.00 0.00 0.00 61 1017.0
20260502195207 48 222 7.0 7.0 0.00 0.00 0.00 61 1017.0
20260502195011 47 222 5.2 5.2 0.00 0.00 0.00 62 1017.0
20260502194606 47 168 4.3 4.3 0.00 0.00 0.00 69 1017.0
20260502194407 48 168 0.0 0.0 0.00 0.00 0.00 60 1017.0
20260502194204 47 168 0.0 0.0 0.00 0.00 0.00 63 1017.0
20260502194009 47 168 0.0 0.0 0.00 0.00 0.00 66 1017.0
20260502193805 47 168 0.0 0.0 0.00 0.00 0.00 67 1017.0
20260502193605 47 168 0.0 0.0 0.00 0.00 0.00 67 1017.0
20260502193407 47 168 0.0 0.0 0.00 0.00 0.00 68 1017.0
20260502193016 52 168 5.2 5.2 0.00 0.00 0.00 56 1017.0
20260502192805 52 168 4.3 4.3 0.00 0.00 0.00 55 1017.0
20260502192605 52 168 0.0 0.0 0.00 0.00 0.00 57 1017.0
20260502192407 51 168 0.0 0.0 0.00 0.00 0.00 57 1017.0
20260502192207 51 168 0.0 0.0 0.00 0.00 0.00 57 1017.0
20260502192011 51 168 0.0 0.0 0.00 0.00 0.00 57 1017.0
20260502191805 51 168 0.0 0.0 0.00 0.00 0.00 58 1017.0
20260502191606 51 168 0.0 0.0 0.00 0.00 0.00 59 1017.0
20260502191204 52 168 0.0 0.0 0.00 0.00 0.00 57 1017.0
20260502191008 52 168 0.0 0.0 0.00 0.00 0.00 58 1017.0
20260502190807 52 168 0.0 0.0 0.00 0.00 0.00 58 1017.0
20260502190606 52 168 0.0 0.0 0.00 0.00 0.00 59 1017.0
20260502190405 52 168 0.0 0.0 0.00 0.00 0.00 59 1017.0
20260502190022 52 168 0.0 0.0 0.00 0.00 0.00 59 1017.0
20260502185807 53 168 0.0 0.0 0.00 0.00 0.00 57 1017.0
20260502185607 54 168 0.0 0.0 0.00 0.00 0.00 55 1017.0
20260502185207 55 168 0.0 0.0 0.00 0.00 0.00 56 1017.0
20260502185011 55 168 0.0 0.0 0.00 0.00 0.00 55 1017.0
20260502184805 55 168 0.0 0.0 0.00 0.00 0.00 54 1017.0
20260502184607 55 168 0.0 0.0 0.00 0.00 0.00 53 1017.0
20260502184407 55 168 0.0 0.0 0.00 0.00 0.00 53 1017.0
20260502184206 55 168 0.0 0.0 0.00 0.00 0.00 53 1017.0
20260502183807 55 168 0.0 0.0 0.00 0.00 0.00 54 1017.0
20260502183606 56 168 0.0 0.0 0.00 0.00 0.00 53 1017.0
20260502183405 56 168 0.0 0.0 0.00 0.00 0.00 53 1017.0
20260502183016 57 174 0.0 0.0 0.00 0.00 0.00 51 1017.0
20260502182805 57 174 0.0 0.0 0.00 0.00 0.00 49 1017.0
20260502182606 58 174 0.0 0.0 0.00 0.00 0.00 50 1017.0
20260502182405 58 174 0.0 0.0 0.00 0.00 0.00 50 1017.0
20260502182205 58 174 0.0 0.0 0.00 0.00 0.00 50 1017.0
20260502182009 59 174 0.0 0.0 0.00 0.00 0.00 49 1017.0
20260502181606 60 174 0.0 0.0 0.00 0.00 0.00 47 1017.0
20260502181207 61 174 0.0 0.0 0.00 0.00 0.00 45 1017.0
20260502180606 62 174 0.0 0.0 0.00 0.00 0.00 45 1017.0
20260502180407 62 174 0.0 0.0 0.00 0.00 0.00 45 1017.0
20260502180206 63 174 0.0 0.0 0.00 0.00 0.00 44 1017.0
20260502170207 75 126 0.0 0.0 0.00 0.00 0.00 30 1017.0
20260502164012 74 55 6.1 6.1 0.00 0.00 0.00 27 1017.0
20260502163805 74 11 0.0 0.0 0.00 0.00 0.00 26 1017.0
20260502163606 74 11 0.0 0.0 0.00 0.00 0.00 27 1017.0
20260502163406 74 6 4.3 4.3 0.00 0.00 0.00 31 1017.0
20260502163206 74 35 5.2 5.2 0.00 0.00 0.00 27 1017.0
20260502163016 74 35 4.3 4.3 0.00 0.00 0.00 27 1017.0
20260502162806 74 35 0.0 0.0 0.00 0.00 0.00 27 1017.0
20260502162606 77 212 0.0 0.0 0.00 0.00 0.00 28 1017.0
20260502162407 77 212 0.0 0.0 0.00 0.00 0.00 26 1017.0
20260502162207 76 212 4.3 4.3 0.00 0.00 0.00 26 1017.0
20260502162015 76 212 0.0 0.0 0.00 0.00 0.00 29 1017.0
20260502161807 76 212 0.0 0.0 0.00 0.00 0.00 27 1017.0
20260502161606 76 212 0.0 0.0 0.00 0.00 0.00 29 1017.0
20260502161407 76 212 0.0 0.0 0.00 0.00 0.00 28 1017.0
20260502161206 75 212 4.3 4.3 0.00 0.00 0.00 28 1017.0
20260502161010 74 233 7.0 7.0 0.00 0.00 0.00 26 1018.0
20260502160813 74 260 4.3 4.3 0.00 0.00 0.00 29 1018.0
20260502160606 73 264 0.0 0.0 0.00 0.00 0.00 27 1018.0
20260502160207 75 265 6.1 6.1 0.00 0.00 0.00 28 1017.0
20260502152207 73 336 6.1 6.1 0.00 0.00 0.00 28 1018.0
20260502152012 73 333 4.3 4.3 0.00 0.00 0.00 31 1018.0
20260502151808 73 41 0.0 0.0 0.00 0.00 0.00 29 1018.0
20260502151607 75 282 7.0 7.0 0.00 0.00 0.00 31 1018.0
20260502151407 76 284 6.1 6.1 0.00 0.00 0.00 29 1018.0
20260502151013 78 180 7.8 7.8 0.00 0.00 0.00 25 1018.0
20260502150807 78 183 4.3 4.3 0.00 0.00 0.00 24 1018.0
20260502150611 78 183 4.3 4.3 0.00 0.00 0.00 25 1018.0
20260502150412 78 211 0.0 0.0 0.00 0.00 0.00 26 1018.0
20260502150206 78 211 0.0 0.0 0.00 0.00 0.00 25 1018.0
20260502130607 76 196 4.3 4.3 0.00 0.00 0.00 26 1019.0
20260502130407 76 196 7.0 7.0 0.00 0.00 0.00 26 1019.0
20260502130219 76 120 4.3 4.3 0.00 0.00 0.00 26 1019.0
20260502123806 73 50 0.0 0.0 0.00 0.00 0.00 28 1020.0
20260502123608 73 189 4.3 4.3 0.00 0.00 0.00 27 1020.0
20260502123408 73 190 5.2 5.2 0.00 0.00 0.00 28 1020.0
20260502123206 72 90 0.0 0.0 0.00 0.00 0.00 29 1020.0
20260502123015 72 126 0.0 0.0 0.00 0.00 0.00 28 1020.0
20260502122807 72 59 7.8 7.8 0.00 0.00 0.00 28 1020.0
20260502122406 71 106 0.0 0.0 0.00 0.00 0.00 31 1020.0
20260502122012 70 72 15.6 16.5 0.00 0.00 0.00 32 1020.0
20260502121807 70 348 7.8 7.8 0.00 0.00 0.00 31 1020.0
20260502121606 71 318 12.2 12.2 0.00 0.00 0.00 31 1020.0
20260502121407 71 256 4.3 4.3 0.00 0.00 0.00 30 1020.0
20260502121208 71 43 4.3 4.3 0.00 0.00 0.00 30 1020.0
20260502121012 71 84 7.0 7.0 0.00 0.00 0.00 31 1020.0
20260502120806 71 348 7.0 7.0 0.00 0.00 0.00 31 1020.0
20260502120606 71 73 7.0 7.0 0.00 0.00 0.00 30 1020.0
20260502120407 71 90 7.0 7.0 0.00 0.00 0.00 31 1020.0
20260502120210 71 256 7.0 7.0 0.00 0.00 0.00 34 1020.0
20260502115806 71 91 6.1 6.1 0.00 0.00 0.00 30 1020.0
20260502115606 71 81 0.0 0.0 0.00 0.00 0.00 31 1020.0
20260502115407 70 284 4.3 4.3 0.00 0.00 0.00 31 1020.0
20260502114810 70 304 12.2 12.2 0.00 0.00 0.00 37 1020.0
20260502114611 70 271 7.0 7.0 0.00 0.00 0.00 39 1020.0
20260502114208 70 330 7.8 7.8 0.00 0.00 0.00 36 1020.0
20260502114012 70 354 0.0 0.0 0.00 0.00 0.00 33 1020.0
20260502113608 73 185 0.0 0.0 0.00 0.00 0.00 35 1020.0
20260502113408 73 184 7.0 7.0 0.00 0.00 0.00 31 1020.0
20260502113207 72 184 5.2 5.2 0.00 0.00 0.00 32 1020.0
20260502113016 71 179 4.3 4.3 0.00 0.00 0.00 30 1020.0
20260502112810 70 183 12.2 12.2 0.00 0.00 0.00 33 1020.0
20260502112606 69 232 13.0 14.8 0.00 0.00 0.00 34 1020.0
20260502112407 69 216 7.8 7.8 0.00 0.00 0.00 38 1020.0
20260502112207 69 282 12.2 12.2 0.00 0.00 0.00 34 1020.0
20260502112025 69 299 7.8 7.8 0.00 0.00 0.00 38 1020.0
20260502111806 69 264 7.8 7.8 0.00 0.00 0.00 35 1020.0
20260502111606 71 282 13.9 14.8 0.00 0.00 0.00 37 1020.0
20260502111407 70 210 14.8 15.6 0.00 0.00 0.00 33 1020.0
20260502111206 70 216 12.2 12.2 0.00 0.00 0.00 34 1020.0
20260502111016 69 270 12.2 12.2 0.00 0.00 0.00 37 1020.0
20260502110808 68 230 0.0 0.0 0.00 0.00 0.00 33 1020.0
20260502110608 68 244 15.6 16.5 0.00 0.00 0.00 38 1020.0
20260502110407 69 300 7.8 7.8 0.00 0.00 0.00 37 1021.0
20260502110210 70 271 0.0 0.0 0.00 0.00 0.00 34 1021.0
20260502110019 71 272 7.0 7.0 0.00 0.00 0.00 37 1021.0
20260502105808 70 192 7.0 7.0 0.00 0.00 0.00 35 1021.0
20260502105606 69 186 7.0 7.0 0.00 0.00 0.00 31 1021.0
20260502105406 69 276 13.9 14.8 0.00 0.00 0.00 34 1020.0
20260502105206 68 305 7.0 7.0 0.00 0.00 0.00 39 1020.0
20260502104806 68 10 13.0 13.0 0.00 0.00 0.00 35 1021.0
20260502104607 69 217 7.0 7.0 0.00 0.00 0.00 32 1021.0
20260502104408 71 180 0.0 0.0 0.00 0.00 0.00 33 1021.0
20260502104013 71 78 4.3 4.3 0.00 0.00 0.00 33 1021.0
20260502103806 71 186 5.2 5.2 0.00 0.00 0.00 31 1021.0
20260502103607 70 173 0.0 0.0 0.00 0.00 0.00 34 1021.0
20260502103404 69 94 0.0 0.0 0.00 0.00 0.00 33 1021.0
20260502103015 69 192 13.0 14.8 0.00 0.00 0.00 34 1021.0
20260502102809 72 152 6.1 6.1 0.00 0.00 0.00 32 1021.0
20260502102607 72 173 0.0 0.0 0.00 0.00 0.00 33 1021.0
20260502102407 72 192 5.2 5.2 0.00 0.00 0.00 32 1021.0
20260502102207 71 184 7.0 7.0 0.00 0.00 0.00 33 1021.0
20260502102013 71 173 7.8 7.8 0.00 0.00 0.00 33 1021.0
20260502101809 70 196 0.0 0.0 0.00 0.00 0.00 33 1021.0
20260502101608 70 196 13.9 14.8 0.00 0.00 0.00 30 1021.0
20260502101206 71 192 7.0 7.0 0.00 0.00 0.00 31 1021.0
20260502101013 70 192 7.0 7.0 0.00 0.00 0.00 31 1021.0
20260502100807 69 162 7.0 7.0 0.00 0.00 0.00 34 1021.0
20260502100207 68 30 5.2 5.2 0.00 0.00 0.00 34 1021.0
20260502091207 69 112 4.3 4.3 0.00 0.00 0.00 34 1022.0
20260502091007 68 180 7.0 7.0 0.00 0.00 0.00 34 1022.0
20260502090807 68 105 5.2 5.2 0.00 0.00 0.00 34 1022.0
20260502090607 68 54 7.0 7.0 0.00 0.00 0.00 35 1022.0
20260502090405 69 54 7.8 7.8 0.00 0.00 0.00 35 1022.0
20260502090207 69 162 0.0 0.0 0.00 0.00 0.00 34 1022.0
20260502071406 65 78 0.0 0.0 0.00 0.00 0.00 38 1022.0
20260502071207 65 78 0.0 0.0 0.00 0.00 0.00 40 1022.0
20260502071008 64 92 0.0 0.0 0.00 0.00 0.00 39 1022.0
20260502070807 64 88 0.0 0.0 0.00 0.00 0.00 39 1022.0
20260502070606 63 50 12.2 12.2 0.00 0.00 0.00 40 1022.0
20260502070407 63 108 5.2 5.2 0.00 0.00 0.00 42 1022.0
20260502065807 62 78 6.1 6.1 0.00 0.00 0.00 45 1022.0
20260502065606 62 35 0.0 0.0 0.00 0.00 0.00 44 1022.0
20260502065407 62 32 5.2 5.2 0.00 0.00 0.00 47 1022.0
20260502065207 62 39 7.8 7.8 0.00 0.00 0.00 48 1022.0
20260502065011 62 6 5.2 5.2 0.00 0.00 0.00 47 1022.0
20260502064606 61 60 6.1 6.1 0.00 0.00 0.00 48 1022.0
20260502064407 61 12 7.8 7.8 0.00 0.00 0.00 47 1022.0
20260502064206 61 330 6.1 6.1 0.00 0.00 0.00 49 1022.0
20260502064013 61 331 0.0 0.0 0.00 0.00 0.00 47 1022.0
20260502063807 61 34 7.8 7.8 0.00 0.00 0.00 49 1022.0
20260502063607 61 348 4.3 4.3 0.00 0.00 0.00 50 1022.0
20260502063406 60 347 6.1 6.1 0.00 0.00 0.00 49 1022.0
20260502062807 60 32 4.3 4.3 0.00 0.00 0.00 48 1022.0
20260502062605 60 348 6.1 6.1 0.00 0.00 0.00 48 1022.0
20260502062407 60 347 7.0 7.0 0.00 0.00 0.00 52 1022.0
20260502062206 60 40 4.3 4.3 0.00 0.00 0.00 50 1022.0
20260502062012 60 24 7.8 7.8 0.00 0.00 0.00 48 1022.0
20260502061807 60 17 7.0 7.0 0.00 0.00 0.00 50 1022.0
20260502061606 60 342 0.0 0.0 0.00 0.00 0.00 52 1022.0
20260502061407 60 302 5.2 5.2 0.00 0.00 0.00 53 1022.0
20260502061011 60 354 0.0 0.0 0.00 0.00 0.00 50 1022.0
20260502060807 59 326 7.8 7.8 0.00 0.00 0.00 49 1022.0
20260502060607 59 40 12.2 12.2 0.00 0.00 0.00 50 1022.0
20260502060407 59 47 7.0 7.0 0.00 0.00 0.00 51 1022.0
20260502060205 58 28 7.8 7.8 0.00 0.00 0.00 50 1022.0
20260502060024 58 54 7.0 7.0 0.00 0.00 0.00 52 1022.0
20260502055806 58 294 0.0 0.0 0.00 0.00 0.00 54 1022.0
20260502055606 57 303 0.0 0.0 0.00 0.00 0.00 55 1022.0
20260502055406 57 310 6.1 6.1 0.00 0.00 0.00 55 1022.0
20260502055207 56 312 4.3 4.3 0.00 0.00 0.00 56 1022.0
20260502055011 56 312 5.2 5.2 0.00 0.00 0.00 58 1022.0
20260502054606 55 292 7.8 7.8 0.00 0.00 0.00 59 1022.0
20260502054207 55 282 6.1 6.1 0.00 0.00 0.00 61 1022.0
20260502053807 54 292 7.0 7.0 0.00 0.00 0.00 63 1022.0
20260502053606 54 280 7.8 7.8 0.00 0.00 0.00 62 1022.0
20260502053407 54 294 7.0 7.0 0.00 0.00 0.00 63 1022.0
20260502053207 54 288 6.1 6.1 0.00 0.00 0.00 64 1022.0
20260502053016 54 300 0.0 0.0 0.00 0.00 0.00 65 1022.0
20260502052806 55 300 4.3 4.3 0.00 0.00 0.00 63 1022.0
20260502052606 54 300 0.0 0.0 0.00 0.00 0.00 60 1022.0
20260502052206 53 300 4.3 4.3 0.00 0.00 0.00 63 1022.0
20260502051806 52 294 6.1 6.1 0.00 0.00 0.00 63 1022.0
20260502051406 51 294 0.0 0.0 0.00 0.00 0.00 69 1022.0
20260502051206 51 294 0.0 0.0 0.00 0.00 0.00 69 1022.0
20260502050806 51 286 5.2 5.2 0.00 0.00 0.00 69 1022.0
20260502050606 51 286 0.0 0.0 0.00 0.00 0.00 67 1022.0
20260502050406 51 286 0.0 0.0 0.00 0.00 0.00 66 1022.0
20260502050018 49 282 0.0 0.0 0.00 0.00 0.00 68 1022.0
20260502045806 48 282 0.0 0.0 0.00 0.00 0.00 71 1022.0
20260502045407 47 282 0.0 0.0 0.00 0.00 0.00 71 1022.0
20260502045207 46 282 0.0 0.0 0.00 0.00 0.00 74 1022.0
20260502045010 46 282 4.3 4.3 0.00 0.00 0.00 75 1022.0
20260502044807 45 282 0.0 0.0 0.00 0.00 0.00 75 1022.0
20260502044611 45 282 0.0 0.0 0.00 0.00 0.00 76 1022.0
20260502044406 45 282 0.0 0.0 0.00 0.00 0.00 77 1022.0
20260502044206 44 282 0.0 0.0 0.00 0.00 0.00 78 1022.0
20260502044012 44 282 0.0 0.0 0.00 0.00 0.00 78 1022.0
20260502043806 44 282 0.0 0.0 0.00 0.00 0.00 78 1022.0
20260502043606 44 282 0.0 0.0 0.00 0.00 0.00 78 1022.0
20260502043206 43 282 0.0 0.0 0.00 0.00 0.00 78 1022.0
20260502042807 42 282 0.0 0.0 0.00 0.00 0.00 77 1022.0
20260502042613 42 282 0.0 0.0 0.00 0.00 0.00 78 1022.0
20260502042407 41 282 0.0 0.0 0.00 0.00 0.00 79 1022.0
20260502042206 41 282 0.0 0.0 0.00 0.00 0.00 80 1022.0
20260502042011 40 282 0.0 0.0 0.00 0.00 0.00 81 1022.0
20260502041406 40 282 0.0 0.0 0.00 0.00 0.00 83 1022.0
20260502041012 40 282 0.0 0.0 0.00 0.00 0.00 83 1022.0
20260502040806 40 282 0.0 0.0 0.00 0.00 0.00 83 1022.0
20260502040607 39 282 0.0 0.0 0.00 0.00 0.00 83 1022.0
20260502040407 39 282 0.0 0.0 0.00 0.00 0.00 84 1022.0
20260502040207 39 282 0.0 0.0 0.00 0.00 0.00 83 1022.0
20260502040019 39 282 0.0 0.0 0.00 0.00 0.00 83 1022.0
20260502035605 39 282 5.2 5.2 0.00 0.00 0.00 84 1022.0
20260502035206 39 282 0.0 0.0 0.00 0.00 0.00 84 1022.0
20260502035010 39 282 0.0 0.0 0.00 0.00 0.00 84 1022.0
20260502034806 39 282 0.0 0.0 0.00 0.00 0.00 84 1022.0
20260502034607 39 282 0.0 0.0 0.00 0.00 0.00 84 1022.0
20260502034404 39 282 0.0 0.0 0.00 0.00 0.00 84 1022.0
20260502034207 39 282 0.0 0.0 0.00 0.00 0.00 84 1022.0
20260502033806 39 282 0.0 0.0 0.00 0.00 0.00 84 1022.0
20260502033606 39 282 0.0 0.0 0.00 0.00 0.00 84 1022.0
20260502033406 39 282 4.3 4.3 0.00 0.00 0.00 84 1022.0
20260502033206 39 282 4.3 4.3 0.00 0.00 0.00 83 1022.0
20260502033015 39 282 0.0 0.0 0.00 0.00 0.00 83 1022.0
20260502032806 40 282 0.0 0.0 0.00 0.00 0.00 82 1022.0
20260502032606 40 282 0.0 0.0 0.00 0.00 0.00 82 1022.0
20260502032406 40 282 0.0 0.0 0.00 0.00 0.00 81 1022.0
20260502032206 40 282 0.0 0.0 0.00 0.00 0.00 80 1022.0
20260502032011 41 282 0.0 0.0 0.00 0.00 0.00 79 1022.0
20260502031807 42 282 0.0 0.0 0.00 0.00 0.00 78 1022.0
20260502031605 41 281 4.3 4.3 0.00 0.00 0.00 77 1022.0
20260502031206 40 281 7.0 7.0 0.00 0.00 0.00 79 1022.0
20260502031010 40 281 0.0 0.0 0.00 0.00 0.00 80 1022.0
20260502030807 40 281 0.0 0.0 0.00 0.00 0.00 81 1022.0
20260502030607 40 281 0.0 0.0 0.00 0.00 0.00 81 1022.0
20260502030407 40 281 0.0 0.0 0.00 0.00 0.00 82 1022.0
20260502030206 40 281 0.0 0.0 0.00 0.00 0.00 81 1022.0
20260502030027 41 281 0.0 0.0 0.00 0.00 0.00 80 1022.0
20260502025806 41 282 0.0 0.0 0.00 0.00 0.00 80 1022.0
20260502025607 41 282 0.0 0.0 0.00 0.00 0.00 79 1022.0
20260502025407 41 282 0.0 0.0 0.00 0.00 0.00 79 1022.0
20260502025206 42 282 0.0 0.0 0.00 0.00 0.00 79 1022.0
20260502025010 42 282 0.0 0.0 0.00 0.00 0.00 78 1022.0
20260502024806 42 282 0.0 0.0 0.00 0.00 0.00 77 1022.0
20260502024606 41 282 5.2 5.2 0.00 0.00 0.00 77 1022.0
20260502024407 41 282 0.0 0.0 0.00 0.00 0.00 79 1022.0
20260502024012 40 282 0.0 0.0 0.00 0.00 0.00 81 1022.0
20260502023806 40 282 0.0 0.0 0.00 0.00 0.00 80 1022.0
20260502023607 39 282 0.0 0.0 0.00 0.00 0.00 83 1022.0
20260502023406 39 282 0.0 0.0 0.00 0.00 0.00 83 1022.0
20260502023206 40 282 4.3 4.3 0.00 0.00 0.00 82 1022.0
20260502023016 39 282 0.0 0.0 0.00 0.00 0.00 81 1022.0
20260502022807 39 282 6.1 6.1 0.00 0.00 0.00 82 1022.0
20260502022605 39 282 0.0 0.0 0.00 0.00 0.00 83 1022.0
20260502022406 39 282 4.3 4.3 0.00 0.00 0.00 83 1022.0
20260502022206 39 282 0.0 0.0 0.00 0.00 0.00 83 1022.0
20260502022011 39 282 4.3 4.3 0.00 0.00 0.00 84 1022.0
20260502021807 39 282 4.3 4.3 0.00 0.00 0.00 83 1022.0
20260502021606 39 282 4.3 4.3 0.00 0.00 0.00 83 1022.0
20260502021407 39 282 5.2 5.2 0.00 0.00 0.00 83 1022.0
20260502021207 39 282 0.0 0.0 0.00 0.00 0.00 84 1022.0
20260502021011 39 282 0.0 0.0 0.00 0.00 0.00 83 1022.0
20260502020807 39 282 5.2 5.2 0.00 0.00 0.00 83 1022.0
20260502020607 39 282 7.0 7.0 0.00 0.00 0.00 83 1022.0
20260502020407 39 282 7.0 7.0 0.00 0.00 0.00 84 1022.0
20260502020206 39 282 7.0 7.0 0.00 0.00 0.00 83 1022.0
20260502020026 39 282 0.0 0.0 0.00 0.00 0.00 83 1022.0
20260502015805 40 282 4.3 4.3 0.00 0.00 0.00 83 1022.0
20260502015607 40 282 0.0 0.0 0.00 0.00 0.00 83 1022.0
20260502015407 40 282 0.0 0.0 0.00 0.00 0.00 82 1022.0
20260502015206 40 282 0.0 0.0 0.00 0.00 0.00 82 1022.0
20260502015011 40 282 0.0 0.0 0.00 0.00 0.00 82 1022.0
20260502014806 40 282 0.0 0.0 0.00 0.00 0.00 82 1022.0
20260502014606 40 282 0.0 0.0 0.00 0.00 0.00 82 1022.0
20260502014406 40 282 0.0 0.0 0.00 0.00 0.00 82 1022.0
20260502014208 40 282 0.0 0.0 0.00 0.00 0.00 82 1022.0
20260502013606 39 282 5.2 5.2 0.00 0.00 0.00 83 1022.0
20260502013014 39 282 4.3 4.3 0.00 0.00 0.00 84 1022.0
20260502012807 40 282 4.3 4.3 0.00 0.00 0.00 83 1022.0
20260502012606 40 282 0.0 0.0 0.00 0.00 0.00 83 1022.0
20260502012407 40 282 4.3 4.3 0.00 0.00 0.00 83 1022.0
20260502012206 40 282 4.3 4.3 0.00 0.00 0.00 82 1022.0
20260502012011 40 282 4.3 4.3 0.00 0.00 0.00 82 1022.0
20260502011607 41 282 0.0 0.0 0.00 0.00 0.00 80 1022.0
20260502011407 41 282 4.3 4.3 0.00 0.00 0.00 80 1022.0
20260502011206 41 282 0.0 0.0 0.00 0.00 0.00 79 1022.0
20260502011012 42 282 4.3 4.3 0.00 0.00 0.00 79 1022.0
20260502010806 42 282 5.2 5.2 0.00 0.00 0.00 79 1022.0
20260502010606 42 282 0.0 0.0 0.00 0.00 0.00 78 1022.0
20260502010407 41 282 0.0 0.0 0.00 0.00 0.00 79 1022.0
20260502005807 41 282 0.0 0.0 0.00 0.00 0.00 80 1022.0
20260502005606 41 282 0.0 0.0 0.00 0.00 0.00 80 1022.0